Погода в Чёрном Озере

Россия / Республика Хакасия     54°41′17″N   89°25′46″E
темп.,
°C
ветер,
м/с
пор.,
м/с
влажн.,
%
обл.,
%
осадки,
мм/ч
давл.,
гПа
погр.,
м
8 марта, пн
пн801:00−14ю128454 0.0 102421
04:00−15ююз11919 0.0 102420
07:00−15ю119023 0.0 102320
10:00−11юв118893 0.0 102074
13:00−6юв228797 0.0 1016179
16:00−3юв1293100 0.0 1012126
19:00−5ююв2292100 0.0 101121
22:00−3ююз51281100 0.0 1011273
9 марта, вт
вт901:00−3ююз4128292 0.0 1011378
04:00−3зюз5158538 0.0 1013610
07:00−6з4127929 0.0 1018390
10:00−8зюз5137290 0.0 10231081
13:00−6зюз7146660 0.0 10261428
16:00−5зюз5116971 0.0 10261256
19:00−10ююз337864 0.0 102626
22:00−12ююз2386100 0.0 102624
10 марта, ср
ср1001:00−13юз2288100 0.0 102423
04:00−13юз2286100 0.0 102323
07:00−15юз228298 0.0 102221
10:00−8юз1287100 0.0 102077
13:000юз3893100 0.0 10181254
16:00+1юз249041 0.0 1017302
19:00−4ююз238249 0.0 101521
22:00−6ююз228664 0.0 101421
11 марта, чт
чт1101:00−9ююв128882 0.0 101021
04:00−9ю2284100 0.0 100621
07:00−7ю237999 0.0 100523
10:00+1юз4158284 0.0 10061160
13:00+2зюз6168678 0.0 10081310
16:000зюз41467100 0.0 10101123
19:00−5юз3671100 0.1 1013141
22:00−7юз31079100 0.0 1017311
12 марта, пт
пт1201:00−8юз3972100 0.0 1019319
04:00−9зюз4117533 0.0 1021277
07:00−13ю338317 0.0 101942
10:00−9ю258394 0.0 1015187
13:00−4зюз9158397 0.4 10161658
16:00−6зюз71961100 0.1 10182033
19:00−11зюз5136785 0.1 1018434
22:00−14зюз413760 0.0 1020443